AO-07 1 07530U 74089B 26266.54908487 -.00000027 00000-0 11926-3 0 9992 2 07530 101.9918 280.8234 0011971 304.5582 186.9438 12.53699703372847 UO-11 1 14781U 84021B 26266.41064681 .00000910 00000-0 97684-4 0 9996 2 14781 97.8187 230.9653 0006630 209.5065 150.5780 14.91008146271766 LO-19 1 20442U 90005G 26266.55491325 .00000062 00000-0 38717-4 0 9990 2 20442 98.8816 291.0546 0010473 278.3430 81.6566 14.34145401916491 AO-27 1 22825U 93061C 26266.17220763 .00000044 00000-0 33501-4 0 9992 2 22825 98.6786 333.5028 0008653 165.7599 194.3829 14.30962611721013 FO-29 1 24278U 96046B 26266.49449946 -.00000006 00000-0 30189-4 0 9991 2 24278 98.5160 101.8871 0349495 201.1622 157.4753 13.53278570486469 GO-32 1 25397U 98043D 26266.54448922 .00000036 00000-0 35846-4 0 9999 2 25397 99.0161 261.8255 0000584 348.4421 11.6743 14.24443966465332 ISS 1 25544U 98067A 26266.43236339 .00008690 00000-0 16429-3 0 9993 2 25544 51.6317 173.8582 0004736 172.3976 187.7085 15.49245192586988 NO-44 1 26931U 01043C 26266.57039801 .00000050 00000-0 49631-4 0 9996 2 26931 67.0530 349.8017 0005875 273.2560 86.7869 14.31985882304534 SO-50 1 27607U 02058C 26265.18448791 .00000558 00000-0 83642-4 0 9995 2 27607 64.5525 188.8355 0071556 244.6308 114.7378 14.83222800278840 CO-55 1 27844U 03031E 26266.52298963 .00000197 00000-0 10425-3 0 9990 2 27844 98.6773 273.8631 0008397 259.0407 100.9827 14.24384900205673 RS-22 1 27939U 03042A 26266.61087037 .00000177 00000-0 35418-4 0 9993 2 27939 98.3479 93.7814 0010558 322.3058 128.1647 14.73608434230044 CO-65 1 32785U 08021C 26266.59783881 .00003343 00000-0 20843-3 0 9990 2 32785 97.8386 250.1805 0010233 59.9180 300.3062 15.10223719 50 CO-66 1 32791U 08021J 26266.54905338 .00014091 00000-0 40659-3 0 9994 2 32791 97.7569 269.4093 0001912 24.2678 335.8654 15.35812597 2363 RS-30 1 32953U 08025A 26266.60364443 -.00000009 00000-0 -14074-3 0 9999 2 32953 82.5011 294.2291 0020738 96.9930 263.3510 12.43182942831925 SRMSAT 1 37841U 11058D 26266.11920302 .00000355 00000-0 48586-4 0 9996 2 37841 19.9708 186.6955 0011792 200.7996 188.9853 14.11593942771671 ZACUBE-1 1 39417U 13066B 26266.43762759 .00003443 00000-0 26442-3 0 9990 2 39417 97.8162 229.2982 0038557 283.7792 75.9142 15.01868012695470 Delfi-N3xt 1 39428U 13066N 26266.52572033 .00004638 00000-0 39679-3 0 9999 2 39428 97.8293 186.7943 0071118 238.5369 120.8887 14.96155778689323 GOMX-1 1 39430U 13066Q 26266.50439872 .00001014 00000-0 15716-3 0 9994 2 39430 97.6436 100.7703 0129150 121.0913 240.3042 14.69716674684351 LO-74 1 39440U 13066AA 26266.31252887 .00002491 00000-0 22980-3 0 9994 2 39440 97.8993 215.7887 0058346 62.5092 298.2042 14.94309385691644 AO-73 1 39444U 13066AE 26266.45658960 .00004764 00000-0 28818-3 0 9996 2 39444 97.8393 240.1030 0033824 226.9327 132.9070 15.10675209694496 DTUSAT-2 1 40030U 14033W 26266.47946499 .00004821 00000-0 25413-3 0 9995 2 40030 98.0922 270.5645 0006033 256.4535 103.6025 15.16100539667579 LILACSAT-2 1 40908U 15049K 26266.59718156 .00014626 00000-0 22331-3 0 9997 2 40908 97.4553 307.3468 0004760 241.6719 118.4055 15.54528677611028 Lapan A3 1 41603U 16040E 26266.59973855 .00002573 00000-0 81301-4 0 9992 2 41603 97.1572 259.5935 0010996 31.7868 328.4037 15.33640122569894 CAS-2T 1 41847U 16066G 26266.23518203 .00000952 00000-0 14220-3 0 9997 2 41847 98.3747 340.8385 0341005 191.8124 167.4921 14.44856057518956 TechnoSat 1 42829U 17042E 26266.43723308 .00002652 00000-0 18818-3 0 9995 2 42829 97.4412 60.4686 0018775 116.5377 243.7778 15.05443893501480 AO-91 1 43017U 17073E 26266.59527192 .00006190 00000-0 26368-3 0 9999 2 43017 97.4542 131.7998 0146679 349.1146 10.6921 15.14019289480277 S-Net D 1 43186U 18014G 26266.47585471 .00003784 00000-0 19236-3 0 9995 2 43186 97.5250 170.6450 0009329 46.2860 313.9144 15.17437929473663 S-Net B 1 43187U 18014H 26266.48931303 .00003731 00000-0 18987-3 0 9990 2 43187 97.5254 170.6477 0009838 41.9645 318.2341 15.17405594473665 S-Net A 1 43188U 18014J 26266.54013324 .00003753 00000-0 19075-3 0 9995 2 43188 97.5266 170.9262 0009735 42.4913 317.7072 15.17447090473677 S-Net C 1 43189U 18014K 26266.49378943 .00003692 00000-0 18795-3 0 9991 2 43189 97.5284 170.9698 0010921 35.1426 325.0525 15.17395998472211 Ten-Koh 1 43677U 18084G 26266.51387955 .00001279 00000-0 99236-4 0 9995 2 43677 98.0708 103.0371 0009946 143.6174 216.5728 15.03260791430934 PO-101 1 43678U 18084H 26266.59006878 .00001094 00000-0 91349-4 0 9998 2 43678 98.1170 107.1299 0012295 198.9318 161.1449 15.00746647430972 QO-100 1 43700U 18090A 26265.84793078 .00000000 00000-0 00000-0 0 9999 2 43700 0.0264 165.0094 0001223 17.8751 149.8479 1.00270447 28658 MinXSS-2 1 43758U 18099A 26266.52258594 .00036684 00000-0 56883-3 0 9996 2 43758 97.4447 346.1408 0005625 253.8088 106.2546 15.53907633429362 AO-95 1 43770U 18099N 26266.39561839 .00007653 00000-0 27795-3 0 9998 2 43770 97.4287 326.3535 0008153 11.8340 348.3089 15.28550326428210 SNUSat 2 1 43782U 18099AA 26266.39192292 .00004993 00000-0 21438-3 0 9996 2 43782 97.3963 318.3010 0008652 317.5249 42.5318 15.23124487427970 SnugLite 1 43784U 18099AC 26266.10403801 .00008053 00000-0 28869-3 0 9994 2 43784 97.3773 319.4938 0001367 332.0345 28.0821 15.28985093428272 ITASat 1 1 43786U 18099AE 26265.67584866 .00004386 00000-0 20589-3 0 9994 2 43786 97.3933 315.2588 0012506 19.5363 340.6349 15.20090341427712 EAGLET 1 1 43790U 18099AJ 26266.57816179 .00002357 00000-0 13487-3 0 9999 2 43790 97.4136 313.6272 0011210 14.2064 345.9480 15.13552552427214 ESEO 1 43792U 18099AL 26266.55570800 .00000837 00000-0 63859-4 0 9997 2 43792 97.3905 299.7066 0011975 7.0403 353.0990 15.04487357426595 JO-97 1 43803U 18099AX 26266.13188060 .00011989 00000-0 33853-3 0 9997 2 43803 97.4032 329.4546 0003817 278.7630 81.3182 15.36514536428657 Suomi 100 1 43804U 18099AY 26265.68903286 .00008312 00000-0 28485-3 0 9993 2 43804 97.4089 325.8057 0007943 297.6399 62.4035 15.30425527428329 ISAT 1 43879U 18111D 26264.79202454 .00774757 30158-3 11826-2 0 9993 2 43879 97.5695 209.3864 0010269 144.5257 215.6708 16.04382360426400 UWE-4 1 43880U 18111E 26266.27048751 .00030318 00000-0 49906-3 0 9997 2 43880 97.5814 199.6180 0005295 358.1844 1.9388 15.52286757425960 Prox-1 1 44339U 19036A 26266.05822457 .00010796 00000-0 99415-3 0 9991 2 44339 23.9935 179.4032 0005556 93.8331 266.2804 14.92652020388109 Taurus 1 1 44530U 19059C 26266.63409409 .00004032 00000-0 63678-3 0 9999 2 44530 98.6495 77.6984 0008489 8.7308 351.4044 14.72947133373134 TO-108 1 44881U 19093C 26266.65339986 -.00000094 00000-0 -45265-5 0 9990 2 44881 97.7449 336.4434 0014779 119.4805 240.7888 14.86640489366046 RS-44 1 44909U 19096E 26266.51114481 .00000030 00000-0 83813-4 0 9998 2 44909 82.5166 274.3678 0216325 274.5230 83.1190 12.79749497314925 SALSAT 1 46495U 20068K 26266.54681981 .00005365 00000-0 18179-3 0 9996 2 46495 97.8887 275.7151 0008210 326.3263 33.7454 15.31014051330408 CSS (TIANHE-1) 1 48274U 21035A 26266.29077513 .00014394 00000-0 17534-3 0 9996 2 48274 41.4677 86.3135 0002355 302.0667 57.9942 15.60215087308485 TeikyoSat 4 1 49396U 21102B 26266.01945777 .00001300 00000-0 84153-4 0 9998 2 49396 97.3624 291.6913 0010847 322.7998 37.2480 15.09791166267481 Z-Sat 1 49399U 21102E 26266.64113212 .00002246 00000-0 11062-3 0 9999 2 49399 97.3259 298.9801 0014625 262.9088 97.0483 15.18892918268381 KOSEN 1 1 49402U 21102H 26266.07972931 .00005015 00000-0 18583-3 0 9994 2 49402 97.3103 306.3698 0012287 214.3079 145.7368 15.28014277268967 HO-113 1 50466U 21131B 26266.62719321 .00000212 00000-0 79031-4 0 9991 2 50466 98.4969 358.4792 0004634 149.0661 211.0802 14.41430292249290 SNUGLITE 2 1 52899U 22065F 26266.35338838 .00000641 00000-0 13009-3 0 9998 2 52899 98.2346 51.1006 0008648 78.4363 281.7810 14.64496210225369 UmKA 1 (RS40S) 1 57172U 23091G 26266.42745638 .00004128 00000-0 18489-3 0 9996 2 57172 97.4951 324.7552 0013677 132.1813 228.0587 15.21744390178947 CubeBel-2 (EU11S) 1 57175U 23091K 26266.53176717 .00009357 00000-0 31209-3 0 9991 2 57175 97.4954 330.7238 0010650 123.0248 237.2018 15.31243177179344 RS-38S 1 57189U 23091Z 26266.49015799 .00013057 00000-0 34153-3 0 9996 2 57189 97.5005 338.0993 0007921 83.0182 277.1964 15.38847466179795 SONATE-2 1 59112U 24043Q 26266.37839450 .00044213 00000-0 42127-3 0 9995 2 59112 97.5617 63.4502 0005368 195.6231 164.4864 15.66671621143220 GRBBeta 1 60237U 24128C 26266.49194078 .00002406 00000-0 17212-3 0 9997 2 60237 61.9885 231.2027 0026181 156.3141 203.9164 15.07213608121083 Curium One 1 60242U 24128H 26266.30384823 .00004966 00000-0 28476-3 0 9999 2 60242 61.9773 217.9249 0025439 150.1863 210.0688 15.13706390121307 ROBUSTA-3A 1 60243U 24128J 26266.32585093 .00004200 00000-0 24885-3 0 9995 2 60243 61.9850 220.8784 0027349 147.5906 212.6877 15.12784029121268 CatSat 1 60246U 24125J 26266.52416581 .00100369 00000-0 71448-3 0 9992 2 60246 97.1940 121.2213 0015300 166.0485 194.1205 15.73390112122774 AO-123 1 61781U 24199AY 26266.51558751 .00005892 00000-0 16499-3 0 9993 2 61781 97.2834 134.3044 0012139 322.1467 37.8923 15.36944208149028 LASARsat 1 62391U 24247Q 26264.88106215 .00033279 00000-0 53318-3 0 9998 2 62391 44.9720 76.3897 0009919 243.9896 115.9975 15.52514070 98316 CroCube 1 62394U 24247T 26263.89520826 .00038917 00000-0 55900-3 0 9992 2 62394 44.9695 77.3471 0010500 248.1402 111.8375 15.55439305 98215 JINJUSat 1B 1 63210U 25052A 26266.45469602 .00012744 00000-0 36204-3 0 9990 2 63210 97.3862 163.4677 0005291 91.1765 269.0085 15.36302072 85179 NUSHSAT 1 1 63211U 25052B 26266.44591384 .00016575 00000-0 42293-3 0 9994 2 63211 97.3836 164.4181 0005035 93.8218 266.3603 15.39567212 85246 TEVEL2-4 1 63213U 25052D 26266.14763207 .00013298 00000-0 36010-3 0 9997 2 63213 97.3756 162.8516 0004657 103.8078 256.3685 15.37786875 85153 TEVEL2-5 1 63214U 25052E 26265.66021251 .00014210 00000-0 38764-3 0 9993 2 63214 97.3754 162.2786 0004516 105.4492 254.7252 15.37544458 85079 TEVEL2-6 1 63215U 25052F 26266.52075187 .00014641 00000-0 39936-3 0 9997 2 63215 97.3760 163.1279 0004441 104.7442 255.4296 15.37539493 85202 TEVEL2-1 1 63217U 25052H 26266.45749308 .00013608 00000-0 37933-3 0 9991 2 63217 97.3732 162.5622 0004486 113.6780 246.4935 15.36880521 85177 TEVEL2-3 1 63218U 25052J 26266.44782589 .00013681 00000-0 38041-3 0 9991 2 63218 97.3736 162.5901 0004224 112.6496 247.5195 15.36959457 85170 TEVEL2-2 1 63219U 25052K 26266.45702738 .00013838 00000-0 38550-3 0 9990 2 63219 97.3732 162.5666 0004494 114.2172 245.9542 15.36896134 85173 TEVEL2-9 1 63237U 25052AD 26266.43898315 .00011832 00000-0 35438-3 0 9999 2 63237 97.3794 161.6916 0007133 135.8033 224.3781 15.34645477 85083 TEVEL2-7 1 63238U 25052AE 26266.43590764 .00011447 00000-0 34700-3 0 9990 2 63238 97.3797 161.5577 0007041 137.4084 222.7706 15.34274609 85074 TEVEL2-8 1 63239U 25052AF 26266.31452661 .00011163 00000-0 33859-3 0 9990 2 63239 97.3793 161.4110 0007117 136.0669 224.1141 15.34261014 85054 SPIRONE 1 66657U 25274H 26266.52714129 .00001217 00000-0 11980-3 0 9996 2 66657 97.7487 194.4324 0013274 51.4123 308.8284 14.93866599 44904 K-HERO 1 66660U 25274L 26266.03646219 .00001271 00000-0 12355-3 0 9997 2 66660 97.7496 194.1802 0015279 56.1600 304.1072 14.94261058 44842 SNUGLITE-III DURI 1 66661U 25274M 26265.75499096 .00001510 00000-0 14570-3 0 9992 2 66661 97.7492 193.9225 0015916 58.0753 302.2013 14.94265773 44801 SAKHACUBE-CHOLBON 1 67290U 25313AU 26266.53971218 .00006980 00000-0 27041-3 0 9996 2 67290 97.3856 340.4084 0009047 18.7068 341.4501 15.26438555 40979 RS95S (QMR-KWT-2) 1 67291U 25313AV 26266.15219766 .00009568 00000-0 34660-3 0 9998 2 67291 97.3854 340.4580 0008401 17.3861 342.7665 15.28561503 40942 Ten-Koh2 1 68261U 25241B 26265.89155272 .00004674 00000-0 19837-3 0 9999 2 68261 51.6560 214.2290 0008155 110.9482 249.2370 15.24942107 29814 JACK-002 1 68417U 26067B 26265.39921804 .00004387 00000-0 20433-3 0 9991 2 68417 97.4675 222.9164 0001017 14.6303 345.4962 15.20430081 26711 DISCO 2 1 68431U 26067R 26266.42009445 .00006257 00000-0 29056-3 0 9998 2 68431 97.4708 223.9307 0003284 49.7080 310.4442 15.20364195 26866 HADES-SA (SpinnyONE) 1 68446U 26067AG 26265.61425551 .00014049 00000-0 61602-3 0 9995 2 68446 97.4498 222.7137 0009036 93.9639 266.2630 15.22056945 26734 PARUS-6U1 1 68456U 26067AS 26266.40813162 .00003876 00000-0 19167-3 0 9998 2 68456 97.4663 223.3804 0007441 84.4720 275.7363 15.18396283 26837 SAL-E 1 68458U 26067AU 26266.44256462 .00005938 00000-0 28702-3 0 9994 2 68458 97.4587 223.3137 0007755 90.9828 269.2295 15.18975035 26843 FSI-SAT 2 1 68792U 26088A 26266.34556505 .00003304 00000-0 22124-3 0 9995 2 68792 97.5205 53.2701 0015386 128.6049 231.6559 15.07494132 23072 OrigamiSat 2 1 68795U 26088D 26266.38772416 .00008043 00000-0 48802-3 0 9999 2 68795 97.5184 53.8207 0015635 101.5410 258.7576 15.10686801 23111 ARICA 2 1 68796U 26088E 26266.38307029 .00002694 00000-0 17346-3 0 9999 2 68796 97.5197 53.6609 0016805 101.2296 259.0823 15.09089466 23109 WASEDA-SAT-ZERO-II 1 68797U 26088F 26266.35558887 .00004861 00000-0 30556-3 0 9993 2 68797 97.5186 53.6898 0016436 100.9188 259.3891 15.09587950 23103 MANGARO-II-Piscus 1 68798U 26088G 26266.41473230 .00003018 00000-0 19208-3 0 9993 2 68798 97.5205 53.7874 0020256 103.6555 256.6932 15.09377339 23119 CO-128 1 69912U 26156AV 26265.72685571 .00001006 00000-0 10740-3 0 9991 2 69912 97.7469 164.7930 0001101 219.3188 140.7950 14.90959536 11533 MARINA 1 69920U 26156BD 26265.93365239 .00001602 00000-0 16276-3 0 9991 2 69920 97.7435 165.1079 0005882 255.2687 104.7880 14.92186890 11570 IO-86 1 40931U 26199.45381863 .00000000 00000-0 77536-4 0 07 2 40931 6.0006 322.6653 0012733 338.8432 273.6875 14.79294310 03 LILIUM-4 1 71922C 26067AC 26089.50133053 -.00014632 00000 0 -74472-3 0 04 2 71922 97.4497 49.1617 0004341 5.9603 355.7042 15.16896692 16